STARLINK-3292 (50174 NORAD) Tracking and Keplerian Element Data

This shows tracking and keplerian element data for the satellite.

Feedback or suggestion? Click here.




ElementValue
Catalog50174
NameSTARLINK-3292
Epoch Orbit2646
Epoch Day140.91667824
Epoch Year2022
RAAN3.5707
Inclination53.2188
Eccentricity0.0002037
Argument of Perigee38.1943
Mean Anonmoly79.8842
Mean Motion15.08851366
Decay Rate-0.0003213
L11 50174U 21125U 22140.91667824 -.00032130 00000+0 -20090-2 0 9993
L22 50174 53.2188 3.5707 0002037 38.1943 79.8842 15.08851366 26467

Live tracking and technical data element details for STARLINK-3292 (NORAD 50174). STARLINK-3292 can be tracked NOW for your location showing map with azimuth and elevation plus other details from your city location.

Track the satellite on the map from your city or location and see movement details for azimuth, elevation, latitude, longitude, range, height, and movement on the map or in text.







IsCatalogInMostPopularTable: catalog: 50174, numindb: 69
Update: records affected: 1



GetName: 50174 STARLINK-3292

Hit Count: updated at: Sun, 22 May 2022 04:24:44 GMT